Time,TemperatureF,DewpointF,PressureIn,WindDirection,WindDirectionDegrees,WindSpeedMPH,WindSpeedGustMPH,Humidity,HourlyPrecipIn,Conditions,Clouds,dailyrainin,SoftwareType,DateUTC
2013-12-20 00:14:00,53.9,42.0,29.71,South,180,0.0,-999.0,64,-99.99,,,0.00,weatherlink.com 1.10,2013-12-20 07:14:00,
2013-12-20 00:29:00,53.7,42.0,29.70,South,180,2.0,-999.0,65,-99.99,,,0.00,weatherlink.com 1.10,2013-12-20 07:29:00,
2013-12-20 00:44:00,53.6,43.0,29.70,South,180,0.0,-999.0,67,-99.99,,,0.00,weatherlink.com 1.10,2013-12-20 07:44:00,
2013-12-20 00:59:00,53.2,42.0,29.70,South,180,0.0,-999.0,67,-99.99,,,0.00,weatherlink.com 1.10,2013-12-20 07:59:00,
2013-12-20 01:14:00,52.9,42.0,29.70,South,180,0.0,-999.0,67,-99.99,,,0.00,weatherlink.com 1.10,2013-12-20 08:14:00,
2013-12-20 01:29:00,52.6,42.0,29.70,South,180,0.0,-999.0,68,-99.99,,,0.00,weatherlink.com 1.10,2013-12-20 08:29:00,
2013-12-20 01:44:00,52.3,43.0,29.69,South,180,0.0,-999.0,70,-99.99,,,0.00,weatherlink.com 1.10,2013-12-20 08:44:00,
2013-12-20 01:59:00,52.1,43.0,29.69,South,180,0.0,-999.0,71,-99.99,,,0.00,weatherlink.com 1.10,2013-12-20 08:59:00,
2013-12-20 02:14:00,52.2,45.0,29.70,South,180,0.0,-999.0,75,-99.99,,,0.00,weatherlink.com 1.10,2013-12-20 09:14:00,
2013-12-20 02:29:00,52.2,46.0,29.70,South,180,0.0,-999.0,78,-99.99,,,0.01,weatherlink.com 1.10,2013-12-20 09:29:00,
2013-12-20 02:44:00,51.1,46.0,29.71,South,180,0.0,-999.0,84,-99.99,,,0.03,weatherlink.com 1.10,2013-12-20 09:44:00,
2013-12-20 02:59:00,50.7,46.0,29.71,South,180,1.0,-999.0,83,-99.99,,,0.04,weatherlink.com 1.10,2013-12-20 09:59:00,
2013-12-20 03:14:00,50.7,46.0,29.71,South,179,2.0,-999.0,85,-99.99,,,0.06,weatherlink.com 1.10,2013-12-20 10:14:00,
2013-12-20 03:29:00,50.5,47.0,29.73,South,171,0.0,-999.0,87,-99.99,,,0.08,weatherlink.com 1.10,2013-12-20 10:29:00,
2013-12-20 03:44:00,50.4,47.0,29.72,South,171,0.0,-999.0,88,-99.99,,,0.09,weatherlink.com 1.10,2013-12-20 10:44:00,
2013-12-20 03:59:00,50.1,47.0,29.73,South,171,0.0,-999.0,88,-99.99,,,0.09,weatherlink.com 1.10,2013-12-20 10:59:00,
2013-12-20 04:14:00,50.1,47.0,29.73,South,171,0.0,-999.0,89,-99.99,,,0.09,weatherlink.com 1.10,2013-12-20 11:14:00,
2013-12-20 04:29:00,50.1,47.0,29.72,South,171,0.0,-999.0,90,-99.99,,,0.09,weatherlink.com 1.10,2013-12-20 11:29:00,
2013-12-20 04:44:00,49.9,47.0,29.72,South,171,0.0,-999.0,90,-99.99,,,0.09,weatherlink.com 1.10,2013-12-20 11:44:00,
2013-12-20 04:59:00,49.6,47.0,29.72,South,171,0.0,-999.0,90,-99.99,,,0.09,weatherlink.com 1.10,2013-12-20 11:59:00,
2013-12-20 05:14:00,49.0,46.0,29.71,South,171,0.0,-999.0,90,-99.99,,,0.09,weatherlink.com 1.10,2013-12-20 12:14:00,
2013-12-20 05:29:00,48.5,46.0,29.71,South,171,0.0,-999.0,90,-99.99,,,0.09,weatherlink.com 1.10,2013-12-20 12:29:00,
2013-12-20 05:44:00,48.0,45.0,29.71,South,171,0.0,-999.0,90,-99.99,,,0.09,weatherlink.com 1.10,2013-12-20 12:44:00,
2013-12-20 05:59:00,47.6,45.0,29.71,South,171,0.0,-999.0,91,-99.99,,,0.09,weatherlink.com 1.10,2013-12-20 12:59:00,
2013-12-20 06:14:00,47.2,45.0,29.71,South,171,0.0,-999.0,91,-99.99,,,0.09,weatherlink.com 1.10,2013-12-20 13:14:00,
2013-12-20 06:29:00,46.8,44.0,29.70,South,171,0.0,-999.0,91,-99.99,,,0.09,weatherlink.com 1.10,2013-12-20 13:29:00,
2013-12-20 06:44:00,46.2,44.0,29.70,South,171,0.0,-999.0,91,-99.99,,,0.09,weatherlink.com 1.10,2013-12-20 13:44:00,
2013-12-20 06:59:00,45.8,43.0,29.71,South,171,0.0,-999.0,91,-99.99,,,0.09,weatherlink.com 1.10,2013-12-20 13:59:00,
2013-12-20 07:15:00,45.4,43.0,29.71,South,171,0.0,-999.0,91,-99.99,,,0.09,weatherlink.com 1.10,2013-12-20 14:15:00,
2013-12-20 07:30:00,45.4,43.0,29.72,South,171,0.0,-999.0,92,-99.99,,,0.09,weatherlink.com 1.10,2013-12-20 14:30:00,
2013-12-20 07:45:00,45.7,44.0,29.73,South,171,0.0,-999.0,92,-99.99,,,0.09,weatherlink.com 1.10,2013-12-20 14:45:00,
2013-12-20 08:00:00,45.5,43.0,29.74,South,171,0.0,-999.0,92,-99.99,,,0.09,weatherlink.com 1.10,2013-12-20 15:00:00,
2013-12-20 08:15:00,45.1,43.0,29.75,South,171,0.0,-999.0,92,-99.99,,,0.09,weatherlink.com 1.10,2013-12-20 15:15:00,
2013-12-20 08:30:00,45.1,43.0,29.76,South,171,0.0,-999.0,92,-99.99,,,0.09,weatherlink.com 1.10,2013-12-20 15:30:00,
2013-12-20 08:45:00,45.5,44.0,29.76,South,171,0.0,-999.0,93,-99.99,,,0.09,weatherlink.com 1.10,2013-12-20 15:45:00,
2013-12-20 09:00:00,47.5,46.0,29.76,South,171,0.0,-999.0,94,-99.99,,,0.09,weatherlink.com 1.10,2013-12-20 16:00:00,
2013-12-20 09:15:00,49.2,48.0,29.77,South,171,0.0,-999.0,94,-99.99,,,0.09,weatherlink.com 1.10,2013-12-20 16:15:00,
2013-12-20 09:30:00,49.8,46.0,29.77,South,173,2.0,-999.0,85,-99.99,,,0.09,weatherlink.com 1.10,2013-12-20 16:30:00,
2013-12-20 09:45:00,52.0,44.0,29.77,West,260,2.0,-999.0,73,-99.99,,,0.09,weatherlink.com 1.10,2013-12-20 16:45:00,
2013-12-20 10:00:00,53.0,42.0,29.78,West,275,5.0,-999.0,67,-99.99,,,0.09,weatherlink.com 1.10,2013-12-20 17:00:00,
2013-12-20 10:15:00,53.6,41.0,29.79,WNW,286,2.0,-999.0,62,-99.99,,,0.09,weatherlink.com 1.10,2013-12-20 17:15:00,
2013-12-20 10:30:00,54.7,41.0,29.79,WNW,288,4.0,-999.0,60,-99.99,,,0.09,weatherlink.com 1.10,2013-12-20 17:30:00,
2013-12-20 10:45:00,55.2,40.0,29.79,NW,309,6.0,-999.0,56,-99.99,,,0.09,weatherlink.com 1.10,2013-12-20 17:45:00,
2013-12-20 11:00:00,55.7,39.0,29.80,NW,325,3.0,-999.0,54,-99.99,,,0.09,weatherlink.com 1.10,2013-12-20 18:00:00,
2013-12-20 11:15:00,56.3,39.0,29.79,NW,326,0.0,-999.0,53,-99.99,,,0.09,weatherlink.com 1.10,2013-12-20 18:15:00,
2013-12-20 11:30:00,56.8,40.0,29.79,NW,326,2.0,-999.0,53,-99.99,,,0.09,weatherlink.com 1.10,2013-12-20 18:30:00,
2013-12-20 11:45:00,57.7,39.0,29.78,NNW,329,3.0,-999.0,51,-99.99,,,0.09,weatherlink.com 1.10,2013-12-20 18:45:00,
2013-12-20 12:00:00,58.2,39.0,29.78,North,351,4.0,-999.0,50,-99.99,,,0.09,weatherlink.com 1.10,2013-12-20 19:00:00,
2013-12-20 12:15:00,58.9,39.0,29.77,North,355,4.0,-999.0,48,-99.99,,,0.09,weatherlink.com 1.10,2013-12-20 19:15:00,
2013-12-20 12:30:00,59.8,38.0,29.77,North,355,5.0,-999.0,45,-99.99,,,0.09,weatherlink.com 1.10,2013-12-20 19:30:00,
2013-12-20 12:45:00,60.3,38.0,29.76,NNW,342,7.0,-999.0,44,-99.99,,,0.09,weatherlink.com 1.10,2013-12-20 19:45:00,
2013-12-20 13:00:00,60.7,38.0,29.76,NNW,342,3.0,-999.0,43,-99.99,,,0.09,weatherlink.com 1.10,2013-12-20 20:00:00,
2013-12-20 13:15:00,61.7,38.0,29.76,NNW,342,4.0,-999.0,42,-99.99,,,0.09,weatherlink.com 1.10,2013-12-20 20:15:00,
2013-12-20 13:30:00,61.8,38.0,29.76,NNW,332,4.0,-999.0,41,-99.99,,,0.09,weatherlink.com 1.10,2013-12-20 20:30:00,
2013-12-20 13:45:00,61.9,37.0,29.75,NNW,333,4.0,-999.0,40,-99.99,,,0.09,weatherlink.com 1.10,2013-12-20 20:45:00,
2013-12-20 14:00:00,62.0,37.0,29.75,NNW,335,2.0,-999.0,40,-99.99,,,0.09,weatherlink.com 1.10,2013-12-20 21:00:00,
2013-12-20 14:15:00,62.1,37.0,29.75,NNW,338,6.0,-999.0,40,-99.99,,,0.09,weatherlink.com 1.10,2013-12-20 21:15:00,
2013-12-20 14:30:00,62.6,37.0,29.75,NNW,335,4.0,-999.0,39,-99.99,,,0.09,weatherlink.com 1.10,2013-12-20 21:30:00,
2013-12-20 14:45:00,62.7,37.0,29.76,NNW,333,2.0,-999.0,38,-99.99,,,0.09,weatherlink.com 1.10,2013-12-20 21:45:00,
2013-12-20 15:00:00,62.7,37.0,29.77,NNW,327,5.0,-999.0,38,-99.99,,,0.09,weatherlink.com 1.10,2013-12-20 22:00:00,
2013-12-20 15:15:00,62.9,36.0,29.76,NNW,333,4.0,-999.0,37,-99.99,,,0.09,weatherlink.com 1.10,2013-12-20 22:15:00,
2013-12-20 15:30:00,62.8,35.0,29.76,NNW,335,3.0,-999.0,36,-99.99,,,0.09,weatherlink.com 1.10,2013-12-20 22:30:00,
2013-12-20 15:45:00,62.9,35.0,29.76,NNW,336,0.0,-999.0,35,-99.99,,,0.09,weatherlink.com 1.10,2013-12-20 22:45:00,
2013-12-20 16:00:00,62.8,34.0,29.76,NNW,335,4.0,-999.0,34,-99.99,,,0.09,weatherlink.com 1.10,2013-12-20 23:00:00,
2013-12-20 16:15:00,62.4,34.0,29.77,NW,325,3.0,-999.0,34,-99.99,,,0.09,weatherlink.com 1.10,2013-12-20 23:15:00,
2013-12-20 16:30:00,62.4,34.0,29.76,NW,325,2.0,-999.0,34,-99.99,,,0.09,weatherlink.com 1.10,2013-12-20 23:30:00,
2013-12-20 16:45:00,62.1,32.0,29.76,NW,305,8.0,-999.0,32,-99.99,,,0.09,weatherlink.com 1.10,2013-12-20 23:45:00,
2013-12-20 17:01:00,61.2,30.0,29.77,WNW,302,3.0,-999.0,31,-99.99,,,0.09,weatherlink.com 1.10,2013-12-21 00:01:00,
2013-12-20 17:16:00,60.6,30.0,29.77,WNW,300,2.0,-999.0,32,-99.99,,,0.09,weatherlink.com 1.10,2013-12-21 00:16:00,
2013-12-20 17:31:00,60.0,29.0,29.77,WNW,291,4.0,-999.0,31,-99.99,,,0.09,weatherlink.com 1.10,2013-12-21 00:31:00,
2013-12-20 17:46:00,59.3,28.0,29.78,WNW,295,8.0,-999.0,31,-99.99,,,0.09,weatherlink.com 1.10,2013-12-21 00:46:00,
2013-12-20 18:01:00,58.9,28.0,29.79,WNW,301,4.0,-999.0,31,-99.99,,,0.09,weatherlink.com 1.10,2013-12-21 01:01:00,
2013-12-20 18:16:00,58.5,28.0,29.79,WNW,301,9.0,-999.0,31,-99.99,,,0.09,weatherlink.com 1.10,2013-12-21 01:16:00,
2013-12-20 18:31:00,58.1,27.0,29.80,WNW,300,8.0,-999.0,31,-99.99,,,0.09,weatherlink.com 1.10,2013-12-21 01:31:00,
2013-12-20 18:46:00,57.6,27.0,29.80,WNW,302,9.0,-999.0,31,-99.99,,,0.09,weatherlink.com 1.10,2013-12-21 01:46:00,
2013-12-20 19:01:00,57.4,27.0,29.81,NW,304,6.0,-999.0,31,-99.99,,,0.09,weatherlink.com 1.10,2013-12-21 02:01:00,
2013-12-20 19:16:00,57.0,26.0,29.82,WNW,294,7.0,-999.0,31,-99.99,,,0.09,weatherlink.com 1.10,2013-12-21 02:16:00,
2013-12-20 19:31:00,56.5,26.0,29.82,WNW,302,7.0,-999.0,31,-99.99,,,0.09,weatherlink.com 1.10,2013-12-21 02:31:00,
2013-12-20 19:46:00,56.2,25.0,29.82,WNW,291,4.0,-999.0,30,-99.99,,,0.09,weatherlink.com 1.10,2013-12-21 02:46:00,
2013-12-20 20:01:00,56.2,25.0,29.82,WNW,298,9.0,-999.0,30,-99.99,,,0.09,weatherlink.com 1.10,2013-12-21 03:01:00,
2013-12-20 20:16:00,55.7,25.0,29.82,WNW,298,6.0,-999.0,30,-99.99,,,0.09,weatherlink.com 1.10,2013-12-21 03:16:00,
2013-12-20 20:31:00,55.4,24.0,29.83,WNW,298,8.0,-999.0,30,-99.99,,,0.09,weatherlink.com 1.10,2013-12-21 03:31:00,
2013-12-20 20:46:00,55.2,24.0,29.84,NW,307,7.0,-999.0,30,-99.99,,,0.09,weatherlink.com 1.10,2013-12-21 03:46:00,
2013-12-20 21:01:00,54.6,24.0,29.84,NW,305,7.0,-999.0,31,-99.99,,,0.09,weatherlink.com 1.10,2013-12-21 04:01:00,
2013-12-20 21:16:00,55.0,24.0,29.85,West,272,9.0,-999.0,30,-99.99,,,0.09,weatherlink.com 1.10,2013-12-21 04:16:00,
2013-12-20 21:31:00,54.8,24.0,29.85,WNW,302,4.0,-999.0,30,-99.99,,,0.09,weatherlink.com 1.10,2013-12-21 04:31:00,
2013-12-20 21:46:00,54.6,24.0,29.85,WNW,296,5.0,-999.0,31,-99.99,,,0.09,weatherlink.com 1.10,2013-12-21 04:46:00,
2013-12-20 22:01:00,54.3,24.0,29.85,WNW,296,4.0,-999.0,31,-99.99,,,0.09,weatherlink.com 1.10,2013-12-21 05:01:00,
2013-12-20 22:16:00,53.9,24.0,29.85,WNW,296,1.0,-999.0,32,-99.99,,,0.09,weatherlink.com 1.10,2013-12-21 05:16:00,
2013-12-20 22:31:00,54.4,24.0,29.85,WNW,298,1.0,-999.0,31,-99.99,,,0.09,weatherlink.com 1.10,2013-12-21 05:31:00,
2013-12-20 22:46:00,54.0,24.0,29.85,WNW,298,2.0,-999.0,31,-99.99,,,0.09,weatherlink.com 1.10,2013-12-21 05:46:00,
2013-12-20 23:01:00,53.3,25.0,29.85,WNW,298,1.0,-999.0,33,-99.99,,,0.09,weatherlink.com 1.10,2013-12-21 06:01:00,
2013-12-20 23:16:00,53.7,24.0,29.86,WNW,300,4.0,-999.0,32,-99.99,,,0.09,weatherlink.com 1.10,2013-12-21 06:16:00,
2013-12-20 23:31:00,54.0,25.0,29.86,WNW,300,1.0,-999.0,32,-99.99,,,0.09,weatherlink.com 1.10,2013-12-21 06:31:00,
2013-12-20 23:46:00,53.9,24.0,29.87,WNW,301,4.0,-999.0,32,-99.99,,,0.09,weatherlink.com 1.10,2013-12-21 06:46:00,